Home   Weather   Kragerø   Past weeks

Flag for Norway Past Weather in Kragerø, Norway — Yesterday and Last 2 Weeks

Now
62 °F

Cool.


Feels Like: 62 °F
Forecast: 54 / 64 °F
Wind: 14 mph from Southwest

Location: Jomfruland Fyr

Current Time: Sep 27, 2016 at 7:17:48 PM

Latest Report: Sep 27, 2016 at 6:00 PM


Visibility: N/A

Pressure: 29.99 "Hg

Humidity: 80%

Dew Point: 55 °F

Location of KragerøLocation

Past Weather in Kragerø — Graph

°F

Kragerø Temperature Yesterday

Maximum temperature yesterday: 63 °F (at 3:00 PM)
Minimum temperature yesterday: 57 °F (at 11:00 PM)
Average temperature yesterday: 61 °F

High & Low Weather Summary for the Past Weeks

 TemperatureHumidityPressure
High69 °F (Sep 14, 12:00 PM)97% (Sep 14, 7:00 AM)30.26 "Hg (Sep 14, 7:00 AM)
Low49 °F (Sep 27, 6:00 AM)46% (Sep 23, 7:00 PM)29.96 "Hg (Sep 23, 3:00 PM)
Average60 °F82%30.13 "Hg
* Reported Sep 12 6:00 PM — Sep 27 6:00 PM, Kragerø, Weather by CustomWeather, © 2016

Note: Actual official high and low records may vary slightly from our data, if they occured in-between our weather recording intervals... More about our weather records

Advertising

Kragerø Weather History for the Previous 24 Hours

Scroll right to see more
 ConditionsComfort  
Time TempWeatherWind HumidityBarometerVisibility
6:00 PM
Tue, Sep 27
62 °FCool.14 mph80%29.99 "HgN/A
5:00 PM61 °FCool.13 mph79%30.04 "HgN/A
4:00 PM61 °FCool.13 mph78%30.06 "HgN/A
3:00 PM61 °FCool.12 mph78%30.11 "HgN/A
2:00 PM61 °FCool.12 mph80%30.15 "HgN/A
1:00 PM62 °FCool.10 mph72%30.17 "HgN/A
12:00 PM63 °FMild.9 mph73%30.19 "HgN/A
11:00 AM58 °FCool.3 mph82%30.21 "HgN/A
10:00 AM56 °FCool.1 mph84%30.22 "HgN/A
9:00 AM54 °FCool.2 mph90%30.23 "HgN/A
8:00 AM49 °FCool.1 mph92%30.23 "HgN/A
7:00 AM49 °FCool.1 mph93%30.23 "HgN/A
6:00 AM49 °FCool.2 mph92%30.24 "HgN/A
5:00 AM50 °FCool.2 mph89%30.24 "HgN/A
4:00 AM51 °FCool.2 mph88%30.24 "HgN/A
3:00 AM54 °FCool.3 mph83%30.24 "HgN/A
2:00 AM54 °FCool.2 mph84%30.23 "HgN/A
1:00 AM52 °FCool.2 mph82%30.23 "HgN/A
12:00 AM55 °FCool.3 mph75%30.23 "HgN/A
11:00 PM
Mon, Sep 26
57 °FCool.6 mph74%30.23 "HgN/A
10:00 PM57 °FCool.6 mph77%30.22 "HgN/A
9:00 PM59 °FCool.8 mph77%30.21 "HgN/A
8:00 PM61 °FCool.8 mph78%30.19 "HgN/A
7:00 PM61 °FCool.9 mph77%30.18 "HgN/A
Weather by CustomWeather, © 2016

See weather overviewHow to use our weather pages